www.pogodaiklimat.ru

Погода и климат >> Архив погоды >> Аргентина >> La Rioja


ПОГОДА в La Rioja

  • Прогноз погоды в La Rioja
  • Монитор погоды в La Rioja
  • Климат города

АРХИВ ПОГОДЫ в La Rioja

Время (UTC), дата Ветер
(напр.,м/с)
 
Видим.   Явления Облачность Т
(С)
Тd
(С)
f
(%)
Тe
(С)
Тes
(С)
Комфортность P
(гПа)
Po
(гПа)
Тmin
(С)
Tmax
(С)
R
(мм)
R24
(мм)
S
(см)
06 15.10 З 1 20 км ясно +14.7 +8.8 68 +15 +15 1011.3 962.5
09 15.10 З 1 20 км ясно +14.4 +8.9 70 +15 +15 1010.2 961.6
12 15.10 штиль 0 20 км ясно +20.8 +10.5 52 +22 +28 комфорт 1010.4 961.7 +13.2 +22.0
15 15.10 СВ 3 20 км ясно +28.0 +10.5 34 +29 +44 жарко 1007.7 959.6
18 15.10 СВ 4 20 км 4/0
[Ci]
+33.3 +10.3 24 +33 +43 жарко 1001.9 954.3
09 16.10 З 2 20 км ясно +15.6 +7.2 57 +16 +16 1000.0 952.5
12 16.10 Ю 3 20 км 1/0
[Ci fib]
+18.5 +8.2 51 +19 +23 1002.2 954.2 +13.5 +24.9
15 16.10 С 3 20 км ясно +30.6 +12.3 33 +31 +47 жарко 1000.3 952.9
18 16.10 СВ 2 20 км ясно +36.6 +3.6 13 +34 +51 опасность
солнечного
удара
995.6 958.7
21 16.10 В 4 20 км ясно +37.0 +7.8 17 +35 +37 очень
жарко
993.7 946.8
00 17.10 штиль 0 20 км ясно +28.5 +10.6 33 +29 +29 жарко 996.9 949.4 +18.5 +38.2
03 17.10 штиль 0 20 км ясно +25.0 +9.9 38 +26 +26 жарко 997.9 951.0
06 17.10 штиль 0 20 км ясно +22.1 +9.8 46 +24 +24 комфорт 997.7 951.0
09 17.10 штиль 0 20 км ясно +22.6 +8.1 39 +24 +24 комфорт 999.3 952.6
12 17.10 штиль 0 20 км ясно +25.0 +9.4 37 +26 +31 жарко 1003.4 956.1 +17.4 +28.5
15 17.10 ЮЗ 2 20 км ясно +31.4 +11.0 29 +32 +49 жарко 1002.7 955.7
18 17.10 С 2 20 км ясно +34.6 +7.3 19 +33 +51 опасность
солнечного
удара
999.2 952.3
21 17.10 В 2 20 км ясно +36.0 +3.7 13 +33 +37 жарко 998.2 951.5
00 18.10 З 3 20 км ясно +26.2 +6.6 29 +26 +26 жарко 1001.4 954.0 +21.8 +36.8
06 18.10 ЮЗ 2 20 км ясно +22.8 +5.2 32 +23 +23 комфорт 1001.6 954.7
09 18.10 ЮЗ 4 20 км ясно +22.5 +5.3 33 +23 +23 комфорт 1003.8 956.9
12 18.10 З 3 20 км ясно +26.2 +16.8 56 +30 +34 душно 1007.8 960.2 +22.5 +26.2
15 18.10 ЮЗ 4 15 км пыльный позёмок 1/1 1350 м
[Cb calv]
+31.6 +10.8 28 +32 +43 жарко 1008.2 960.8
18 18.10 Ю 5 15 км пыльный позёмок 5/3 1140 м
[Cb calv Ac As Ci fib]
+34.6 +13.1 27 +35 +40 очень
жарко
1005.7 958.6
21 18.10 ЮВ 4 15 км пыльный позёмок 6/6 1140 м
[Cu Sc]
+33.0 +17.2 39 +37 +38 очень
душно
1005.5 958.2
00 19.10 ЮЗ 2 10 км в посл. час дождь туман 9/9 1200 м
[Sc As op]
+24.3 +20.9 81 +30 +30 очень
душно
1011.8 963.8 +26.0 +35.2 0.5
03 19.10 Ю 2 15 км 10/10 1200 м
[Sc]
+21.9 +19.6 87 +27 +27 душно 1014.2 966.4
06 19.10 Ю 1 15 км 10/10 1200 м
[Sc]
+23.2 +19.1 78 +30 +30 очень
душно
1013.6 966.1
09 19.10 Ю 3 15 км слабая морось 10/10 1200 м
[Sc]
+18.4 +18.4 100 +19 +19 1015.2 967.2
12 19.10 Ю 2 5000 м слабая морось 10/10 300 м
[Frnb]
+16.8 +16.8 100 +17 +17 1017.7 968.8 +16.0 +24.3 8
15 19.10 Ю 2 3000 м слабая морось 10/10 300 м
[Frnb]
+18.4 +18.1 98 +20 +20 1017.4 968.4
18 19.10 штиль 0 3000 м слабая морось 10/10 750 м
[Frnb]
+18.4 +18.4 100 +19 +19 1014.0 965.2 8
21 19.10 Ю 1 10 км 10/10 900 м
[Sc]
+19.4 +19.1 98 +23 +23 комфорт 1011.2 962.3
00 20.10 ЮЗ 3 5000 м слабая морось 10/10 750 м
[Frnb]
+19.6 +19.3 98 +23 +23 комфорт 1013.9 954.6 +16.6 +20.5 0.6
03 20.10 Ю 1 15 км 10/10 900 м
[Frnb]
+18.8 +18.2 96 +21 +21 комфорт 1014.6 965.5
06 20.10 Ю 2 15 км 10/10 1200 м
[Frnb]
+18.5 +17.5 94 +20 +20 1012.6 963.6 0.8
09 20.10 Ю 2 10 км слабая морось 10/10 1050 м
[Sc]
+18.5 +18.2 98 +20 +20 1012.3 963.4
12 20.10 Ю 1 10 км 10/10 900 м
[St]
+18.7 +17.9 95 +21 +21 комфорт 1012.8 963.9 +18.0 +19.8 9
15 20.10 Ю 2 10 км осадки на расстоянии 10/10 750 м
[Frnb]
+20.8 +18.3 86 +26 +26 душно 1011.9 963.1
18 20.10 ЮЗ 2 10 км осадки на расстоянии 10/10 750 м
[Frnb]
+22.2 +18.2 78 +27 +27 душно 1009.1 960.5
21 20.10 Ю 3 10 км 10/10 600 м
[Frnb]
+19.9 +18.8 93 +23 +23 комфорт 1008.9 960.1
00 21.10 ЮЗ 3 8000 м слабая морось 10/10 450 м
[Frnb]
+18.8 +18.2 96 +20 +20 1011.6 962.6 +18.7 +22.5 0.0
03 21.10 ЮЗ 2 10 км слабая морось 10/10 450 м
[Frnb]
+18.5 +18.3 99 +20 +20 1011.7 962.9
06 21.10 Ю 2 10 км слабая морось 10/10 450 м
[Frnb]
+18.2 +17.7 97 +19 +19 1010.5 961.8 0.0
09 21.10 ЮЗ 2 10 км слабая морось 10/10 450 м
[Frnb]
+17.7 +17.7 100 +18 +18 1009.8 961.0
12 21.10 ЮЗ 2 5000 м слабая морось 10/10 450 м
[Frnb]
+17.2 +17.2 100 +18 +18 1011.7 962.6 +17.2 +18.8 0.2
15 21.10 ЮЗ 1 15 км 10/10 1200 м
[Cu Sc]
+20.6 +16.8 79 +25 +25 комфорт 1010.6 961.8
18 21.10 Ю 2 15 км дымка {морось} 10/10 1200 м
[Cu Sc]
+23.0 +17.5 71 +28 +28 душно 1008.3 959.8 0.0
21 21.10 З 4 18 км 8/8 1200 м
[Sc]
+24.6 +17.1 63 +28 +29 душно 1006.7 958.4
00 22.10 Ю 2 15 км дымка 10/10 1200 м
[Sc]
+23.3 +17.9 72 +29 +29 душно 1008.7 960.1 +17.2 +25.5
03 22.10 ЮЗ 2 15 км 9/9 1350 м
[Sc]
+21.9 +17.0 74 +26 +26 душно 1010.4 961.9

 

Местоположение метеостанции La Rioja (Аргентина): широта -29.38 долгота -66.81 высота над уровнем моря 429 м.

В архиве по умолчанию представлена погода в La Rioja за последнюю неделю. Архивные данные за месяц целиком и за предыдущие месяцы, начиная с января 2011 года, Вы можете получить, выбрав интересующий диапазон дат из раскрывающегося списка и нажав кнопку "Ввод!".


*Определитесь, кто Вы:
робот инопланетянин человек

Внимание! Время в таблицах - всемирное. Для получения местного времени необходимо прибавить поправку, которая в La Rioja равна -3 ч.

Смотрите также архив погоды в соседних городах и на ближайших метеорологических станциях:

Погода в Chamical (Аргентина) (120 км)
Погода в San Fernando del Valle de Catamarca (Аргентина) (134 км)
Погода в San Juan (Аргентина) (272 км)
Погода в Santiago del Estero (Аргентина) (304 км)
Погода в Villa de Maria del Rio Seco (Аргентина) (308 км)
Погода в Villa Dolores (Аргентина) (328 км)
Погода в San Miguel de Tucuman (Аргентина) (328 км)
Погода в Cordoba (Аргентина) (329 км)
Погода в Pilar (Аргентина) (378 км)
Погода в Mendoza (Аргентина) (427 км)

Пояснения к столбцам:

Ветер - указаны скорость ветра в м/с - средняя за 10 мин, порывы в срок и между сроками (в фигурных скобках) и направление, откуда дует ветер: С - северный, СВ - северо-восточный, В - восточный, ЮВ - юго-восточный, Ю - южный, ЮЗ - юго-западный, З - западный, СЗ - северо-западный.
Видимость - горизонтальная дальность видимости в метрах или километрах. При видимости от 1 до 10 км при отсутствии осадков обычно наблюдается дымка, при ухудшении видимости до 1 км и менее - туман. В сухую погоду видимость может ухудшаться дымом, пылью или мглою.
Явления - указаны атмосферные явления, наблюдавшиеся в срок или в последний час перед сроком; фигурными скобками обозначены явления, наблюдавшиеся между сроками (за 1-3 часа до срока); квадратными скобками обозначены град или гололедные отложения с указанием их диаметра в мм.
Облачность - указаны через наклонную черту общая и нижняя облачность в баллах и высота нижней границы облаков в метрах; квадратными скобками обозначены формы облаков: Ci - перистые, Cs - перисто-слоистые, Cc - перисто-кучевые, Ac - высококучевые, As - высокослоистые, Sc - слоисто-кучевые, Ns - слоисто-дождевые, Cu - кучевые, Cb - кучево-дождевые. Подробнее классификацию облаков см. в Атласе облаков (PDF).
T - Температура воздуха - температура, измеренная на высоте 2 м над землей.
Td - Температура точки росы - температура, при понижении до которой содержащийся в воздухе водяной пар достигнет насыщения.
f - Относительная влажность воздуха - влажноcть воздуха, измеренная на высоте 2 м над землей.
Te - Эффективная температура - температура, которую ощущает одетый по сезону человек в тени. Характеристика душности погоды. При расчете учитывается влияние влажности воздуха и скорости ветра на теплоощущения человека.
Tes - Эффективная температура на солнце - температура, которую ощущает человек, с поправкой на солнечный нагрев. Характеристика знойности погоды. Зависит от высоты солнца над горизонтом, облачности и скорости ветра. Ночью, в пасмурную погоду, а также при ветре 12 м/с и более поправка равна нулю.
P - Атмосферное давление - приведенное к уровню моря атмосферное давление.
Po - Атмосферное давление - измеренное на уровне метеостанции атмосферное давление.
Tmin - Минимальная температура - минимум температуры воздуха на высоте 2 м над землей.
Tmax - Максимальная температура - максимум температуры воздуха на высоте 2 м над землей.
R - Количество осадков - Количество выпавших осадков за период времени, мм. При наведении курсора мыши на число - период времени, за который выпало указанное количество осадков.
R24 - Количество осадков - Количество выпавших осадков за 24 часа, мм.
S - Снежный покров - Высота снежного покрова, см. При наведении курсора мыши на число - состояние снежного покрова и степень покрытия местности в баллах.